Powrót do katalogu

STARLINK-32356

AktywnyŁącznośćVLEO
NORAD 60921·PAYLOAD·🇺🇸 United States

Wystrzelony Aug 31, 2024 z Cape Canaveral Space Force Station

Loading…

Następne Przeloty (najbliższe 24 godziny)

TLE

ŚwieżeSource: CelesTrak SupGP

Epoka: Sep 15, 2026, 02:55 UTC

1 60921C 24154U   26258.12201389  .00035220  00000+0  11327-2 0  2588
2 60921  53.1565 122.6622 0001324  83.7479   2.7204 15.31680842    18

Śledź STARLINK-32356 w czasie rzeczywistym z AllMySat

Download on the App Store